Location: Peebles
(55.6412°N, 3.1714°W)
Time: 14:44:34
(UTC+00:00)

MOZHAYETS 4 - Pass Details

Date: 18 December 2023
Orbit: 654 x 672 km, 98.3° (Epoch: 03 March)

Event Time Altitude Azimuth Distance (km) Brightness Sun altitude
Exits shadow 18:15:06 - 5° (N) 2,792 10.7 -19.9°
Reaches altitude 10° 18:17:14 10° 350° (N) 2,121 10.3 -20.2°
Maximum altitude 18:20:17 18° 308° (NW) 1,653 10.2 -20.6°
Drops below altitude 10° 18:23:21 10° 267° (W) 2,110 11.4 -21.1°
Sets 18:26:11 0° 248° (WSW) 3,017 12.5 -21.5°
